Snow/Ice From: 16-12-2017 16:00 Until: 17-12-2017 16:00 warning for: Snow/Ice Level: Yellow info button

Although rather usual in this region, locally or potentially dangerous phenomena are expected. (such as local winds, summer thunderstorms, rising streams or high waves) Be aware and pay attention to the latest weather updates, especially if you carry out activities exposed to weather or close to a stream or shoreline. 


Meteo18 Weather Cam more information Meteo18 Weather Cam


Thunder radar more information blitzortung!


warning for Snow/Ice more information rain snow radar


Visit our other weather sites:

Template documentation
and downloads

And another site



Weather Underground History page Text

Daily Summary for April 23, 2017 Units:  English    Metric   Both
« Previous Day
Next Day »
Daily Weekly Monthly Yearly Custom
  High: Low: Average:
Temperature: 57.7 °F 41.5 °F 49.6 °F
Dew Point: 42.8 °F 32 °F 36.3 °F
Humidity: 88 % 39 % 62 %
Wind Speed: 22 mph 0 mph 6.3 mph
Wind Gust: 27 mph - -
Wind:- - ENE
Pressure: 30.3 in 30.2 in -
Precipitation: 0 in    
Historical Graphs
 
 
Tabular Data for April 23, 2017
Time Temperature Dew Point Pressure Wind Wind Speed Wind Gust Humidity Rainfall Rate (Hourly)
00:02 48.7 °F 42.8 °F 30.3 in North 2 mph 10 mph 80 % 0 in
00:12 48 °F 42.4 °F 30.3 in NNE 1 mph 8 mph 81 % 0 in
00:17 47.8 °F 42.6 °F 30.3 in North 1 mph 4 mph 82 % 0 in
00:22 47.5 °F 42.3 °F 30.3 in North 3 mph 5 mph 82 % 0 in
00:27 47.3 °F 42.4 °F 30.3 in Calm   5 mph 83 % 0 in
00:32 46.9 °F 42.1 °F 30.3 in NNW 2 mph 4 mph 83 % 0 in
00:37 46.8 °F 42.3 °F 30.3 in NNE 2 mph 4 mph 84 % 0 in
00:42 46.6 °F 42.1 °F 30.3 in NNE 3 mph 4 mph 84 % 0 in
00:52 46.6 °F 42.3 °F 30.3 in Calm   6 mph 85 % 0 in
00:57 46.4 °F 42.1 °F 30.3 in NNE 1 mph 6 mph 85 % 0 in
01:02 46 °F 41.7 °F 30.3 in NNW 2 mph 6 mph 85 % 0 in
01:12 45.9 °F 41.9 °F 30.3 in NNW 1 mph 4 mph 86 % 0 in
01:17 46 °F 42.1 °F 30.3 in North 1 mph 3 mph 86 % 0 in
01:22 46 °F 42.1 °F 30.3 in NE 1 mph 3 mph 86 % 0 in
01:32 46.2 °F 42.3 °F 30.3 in North 2 mph 4 mph 86 % 0 in
01:37 46 °F 41.7 °F 30.3 in NE 2 mph 6 mph 85 % 0 in
01:42 46.2 °F 41.9 °F 30.3 in NNE 5 mph 6 mph 85 % 0 in
01:47 46.6 °F 42.3 °F 30.3 in NNE 2 mph 9 mph 85 % 0 in
01:52 46.8 °F 42.3 °F 30.3 in NE 8 mph 9 mph 84 % 0 in
01:57 47.1 °F 42.3 °F 30.3 in NNE 7 mph 11 mph 83 % 0 in
02:02 47.3 °F 42.1 °F 30.3 in NNE 10 mph 11 mph 82 % 0 in
02:07 47.1 °F 41.9 °F 30.3 in NNE 4 mph 11 mph 82 % 0 in
02:12 46.9 °F 41.7 °F 30.3 in NNE 1 mph 11 mph 82 % 0 in
02:17 46.9 °F 41.7 °F 30.3 in NE 1 mph 10 mph 82 % 0 in
02:22 46.9 °F 41.7 °F 30.3 in NNE 6 mph 10 mph 82 % 0 in
02:27 46.8 °F 41.5 °F 30.3 in NW 3 mph 10 mph 82 % 0 in
02:32 46.6 °F 41.4 °F 30.3 in NNE 5 mph 10 mph 82 % 0 in
02:37 46.6 °F 41.4 °F 30.3 in NNE 6 mph 8 mph 82 % 0 in
02:42 46.2 °F 41 °F 30.3 in Calm   8 mph 82 % 0 in
02:52 46 °F 41.2 °F 30.3 in NE 4 mph 8 mph 83 % 0 in
02:57 46 °F 41.2 °F 30.3 in NE 7 mph 8 mph 83 % 0 in
03:02 46.2 °F 41.4 °F 30.3 in NE 5 mph 8 mph 83 % 0 in
03:12 46.2 °F 41.4 °F 30.3 in NNE 4 mph 11 mph 83 % 0 in
03:17 46 °F 40.8 °F 30.3 in NNE 8 mph 10 mph 82 % 0 in
03:22 45.9 °F 41 °F 30.3 in North 2 mph 10 mph 83 % 0 in
03:27 45.7 °F 40.8 °F 30.3 in NNE 4 mph 9 mph 83 % 0 in
03:32 45.3 °F 40.8 °F 30.3 in NNE 3 mph 9 mph 84 % 0 in
03:37 45 °F 40.5 °F 30.3 in NW 2 mph 7 mph 84 % 0 in
03:42 44.8 °F 40.5 °F 30.3 in NNE 1 mph 7 mph 85 % 0 in
03:47 44.4 °F 40.3 °F 30.3 in NNW 1 mph 6 mph 85 % 0 in
03:52 44.2 °F 40.1 °F 30.3 in NE 3 mph 6 mph 85 % 0 in
03:57 44.2 °F 40.1 °F 30.3 in North 3 mph 9 mph 85 % 0 in
04:02 44.1 °F 39.9 °F 30.3 in North 3 mph 9 mph 85 % 0 in
04:12 43.7 °F 40.1 °F 30.3 in NE 1 mph 9 mph 87 % 0 in
04:17 43.5 °F 39.9 °F 30.3 in NNE 5 mph 7 mph 87 % 0 in
04:22 43.5 °F 39.9 °F 30.3 in NW 1 mph 7 mph 87 % 0 in
04:32 43.3 °F 39.7 °F 30.3 in North 5 mph 7 mph 87 % 0 in
04:42 43.3 °F 39.7 °F 30.3 in NNW 6 mph 7 mph 87 % 0 in
04:47 43.2 °F 39.9 °F 30.3 in Calm   10 mph 88 % 0 in
04:52 43 °F 39.7 °F 30.3 in East 4 mph 10 mph 88 % 0 in
05:02 42.6 °F 39.4 °F 30.3 in ENE 1 mph 9 mph 88 % 0 in
05:12 42.4 °F 39.2 °F 30.3 in NNE 3 mph 11 mph 88 % 0 in
05:17 42.3 °F 39 °F 30.3 in NE 2 mph 9 mph 88 % 0 in
05:22 42.1 °F 38.8 °F 30.3 in ENE 1 mph 9 mph 88 % 0 in
05:32 41.5 °F 38.3 °F 30.3 in NNE 2 mph 9 mph 88 % 0 in
05:42 41.5 °F 37.9 °F 30.3 in NNE 4 mph 8 mph 87 % 0 in
05:47 41.5 °F 37.9 °F 30.3 in NE 9 mph 9 mph 87 % 0 in
05:52 41.7 °F 37.8 °F 30.3 in NNE 3 mph 8 mph 86 % 0 in
05:57 42.1 °F 37.9 °F 30.3 in North 6 mph 13 mph 85 % 0 in
06:02 42.1 °F 37.9 °F 30.3 in NNE 5 mph 13 mph 85 % 0 in
06:12 42.3 °F 37.4 °F 30.3 in ENE 4 mph 15 mph 83 % 0 in
06:17 42.3 °F 37.4 °F 30.3 in NE 10 mph 15 mph 83 % 0 in
06:22 42.3 °F 37.4 °F 30.3 in NNE 11 mph 15 mph 83 % 0 in
06:32 41.9 °F 37 °F 30.3 in NNE 6 mph 13 mph 83 % 0 in
06:37 41.7 °F 36.9 °F 30.3 in NNE 8 mph 13 mph 83 % 0 in
06:42 41.7 °F 36.7 °F 30.3 in NE 5 mph 13 mph 82 % 0 in
06:47 41.7 °F 36.7 °F 30.3 in NNE 9 mph 15 mph 82 % 0 in
06:52 41.7 °F 36.3 °F 30.3 in NE 12 mph 15 mph 81 % 0 in
06:57 41.7 °F 36 °F 30.3 in NE 10 mph 14 mph 80 % 0 in
07:02 41.5 °F 35.8 °F 30.3 in NNW 7 mph 14 mph 80 % 0 in
07:07 41.7 °F 35.8 °F 30.3 in NNE 10 mph 14 mph 79 % 0 in
07:12 41.7 °F 35.8 °F 30.3 in NE 7 mph 14 mph 79 % 0 in
07:17 41.7 °F 35.4 °F 30.3 in ENE 4 mph 14 mph 78 % 0 in
07:22 41.9 °F 35.6 °F 30.3 in NNE 7 mph 15 mph 78 % 0 in
07:32 42.3 °F 35.6 °F 30.3 in NE 6 mph 12 mph 77 % 0 in
07:37 42.3 °F 35.2 °F 30.3 in NNE 4 mph 12 mph 76 % 0 in
07:42 42.4 °F 35.4 °F 30.3 in NNE 8 mph 10 mph 76 % 0 in
07:47 42.4 °F 35.1 °F 30.3 in NE 3 mph 10 mph 75 % 0 in
07:52 42.6 °F 35.2 °F 30.3 in NNE 3 mph 11 mph 75 % 0 in
07:57 42.8 °F 35.4 °F 30.3 in NNE 7 mph 11 mph 75 % 0 in
08:02 43 °F 35.6 °F 30.3 in NE 5 mph 11 mph 75 % 0 in
08:12 43.2 °F 35.4 °F 30.3 in NNE 6 mph 12 mph 74 % 0 in
08:17 43.3 °F 35.6 °F 30.3 in NNE 7 mph 12 mph 74 % 0 in
08:22 43.7 °F 36.3 °F 30.3 in NE 9 mph 13 mph 75 % 0 in
08:32 44.1 °F 36.3 °F 30.3 in NE 6 mph 11 mph 74 % 0 in
08:42 44.8 °F 36.3 °F 30.3 in NE 7 mph 11 mph 72 % 0 in
08:47 44.8 °F 36 °F 30.3 in NE 5 mph 11 mph 71 % 0 in
08:52 45.1 °F 36 °F 30.3 in NE 11 mph 13 mph 70 % 0 in
08:57 45.3 °F 35.8 °F 30.3 in NE 5 mph 13 mph 69 % 0 in
09:02 45.3 °F 35.4 °F 30.3 in North 11 mph 13 mph 68 % 0 in
09:07 45.7 °F 35.8 °F 30.3 in NNE 6 mph 13 mph 68 % 0 in
09:12 46 °F 35.8 °F 30.3 in NNE 6 mph 13 mph 67 % 0 in
09:17 46.6 °F 36.1 °F 30.3 in NE 6 mph 13 mph 67 % 0 in
09:22 46.9 °F 35.8 °F 30.3 in NE 4 mph 13 mph 65 % 0 in
09:27 47.1 °F 36 °F 30.3 in NNE 6 mph 13 mph 65 % 0 in
09:32 47.5 °F 35.6 °F 30.3 in NNE 6 mph 11 mph 63 % 0 in
09:37 47.7 °F 35.6 °F 30.3 in ENE 8 mph 11 mph 63 % 0 in
09:42 48 °F 35.2 °F 30.3 in NE 12 mph 14 mph 61 % 0 in
09:47 48.4 °F 35.1 °F 30.3 in NNE 7 mph 14 mph 60 % 0 in
09:52 48.7 °F 36.3 °F 30.3 in NNE 11 mph 18 mph 62 % 0 in
09:57 48.7 °F 34.7 °F 30.3 in North 12 mph 18 mph 58 % 0 in
10:02 48.7 °F 35.1 °F 30.3 in NNE 9 mph 20 mph 59 % 0 in
10:12 48.9 °F 34.9 °F 30.3 in ENE 14 mph 20 mph 58 % 0 in
10:17 49.1 °F 35.4 °F 30.3 in ENE 7 mph 20 mph 59 % 0 in
10:22 49.1 °F 34.9 °F 30.3 in NE 8 mph 18 mph 58 % 0 in
10:32 49.5 °F 35.2 °F 30.3 in NNE 14 mph 18 mph 58 % 0 in
10:37 49.5 °F 35.8 °F 30.3 in NE 8 mph 18 mph 59 % 0 in
10:42 49.6 °F 36 °F 30.3 in NE 12 mph 20 mph 59 % 0 in
10:47 49.8 °F 35.6 °F 30.3 in ENE 11 mph 20 mph 58 % 0 in
10:57 50.2 °F 34.7 °F 30.3 in North 13 mph 18 mph 55 % 0 in
11:02 50.4 °F 35.2 °F 30.3 in NNE 8 mph 21 mph 56 % 0 in
11:07 50.7 °F 35.1 °F 30.3 in ENE 8 mph 21 mph 55 % 0 in
11:12 50.7 °F 34.7 °F 30.3 in NE 12 mph 21 mph 54 % 0 in
11:17 51.1 °F 35.4 °F 30.3 in ENE 9 mph 21 mph 55 % 0 in
11:22 51.1 °F 34.5 °F 30.3 in ENE 5 mph 19 mph 53 % 0 in
11:32 51.3 °F 34.7 °F 30.3 in ENE 13 mph 20 mph 53 % 0 in
11:42 52 °F 36.3 °F 30.3 in NE 9 mph 20 mph 55 % 0 in
11:47 52.3 °F 35.2 °F 30.3 in NNE 7 mph 20 mph 52 % 0 in
11:52 52.3 °F 35.8 °F 30.3 in NNE 22 mph 22 mph 53 % 0 in
11:57 52.2 °F 36 °F 30.3 in NNE 9 mph 19 mph 54 % 0 in
12:02 52.5 °F 34.9 °F 30.3 in North 9 mph 22 mph 51 % 0 in
12:07 52.3 °F 35.2 °F 30.3 in ENE 14 mph 22 mph 52 % 0 in
12:12 52.2 °F 34.5 °F 30.3 in NE 9 mph 20 mph 51 % 0 in
12:17 52.3 °F 35.2 °F 30.3 in NE 15 mph 20 mph 52 % 0 in
12:22 52.2 °F 35.6 °F 30.3 in NE 10 mph 27 mph 53 % 0 in
12:32 53.1 °F 33.8 °F 30.3 in North 11 mph 27 mph 48 % 0 in
12:37 53.2 °F 35.1 °F 30.3 in East 6 mph 25 mph 50 % 0 in
12:42 53.8 °F 35.6 °F 30.3 in North 10 mph 25 mph 50 % 0 in
12:47 53.6 °F 34.9 °F 30.3 in NNW 11 mph 25 mph 49 % 0 in
12:52 53.4 °F 35.8 °F 30.3 in NNE 12 mph 25 mph 51 % 0 in
12:57 53.2 °F 34.5 °F 30.3 in NE 13 mph 25 mph 49 % 0 in
13:02 53.4 °F 34.7 °F 30.3 in NNE 7 mph 22 mph 49 % 0 in
13:12 54.3 °F 35.1 °F 30.3 in NE 8 mph 22 mph 48 % 0 in
13:17 54.3 °F 36.1 °F 30.3 in East 9 mph 17 mph 50 % 0 in
13:22 54.3 °F 35.1 °F 30.3 in ENE 11 mph 17 mph 48 % 0 in
13:32 54.7 °F 36 °F 30.3 in NNE 9 mph 20 mph 49 % 0 in
13:37 54.9 °F 36.5 °F 30.3 in NE 10 mph 19 mph 50 % 0 in
13:42 55 °F 36.1 °F 30.3 in East 11 mph 19 mph 49 % 0 in
13:47 55.2 °F 36.9 °F 30.3 in East 12 mph 18 mph 50 % 0 in
13:52 55.9 °F 36 °F 30.3 in NNE 13 mph 18 mph 47 % 0 in
14:02 55.9 °F 37 °F 30.3 in ENE 3 mph 17 mph 49 % 0 in
14:12 55.8 °F 34.7 °F 30.3 in NW 13 mph 19 mph 45 % 0 in
14:17 55.9 °F 34.9 °F 30.3 in NNE 17 mph 20 mph 45 % 0 in
14:22 55.9 °F 34.3 °F 30.3 in NW 6 mph 20 mph 44 % 0 in
14:32 55.8 °F 32.4 °F 30.3 in NNE 11 mph 19 mph 41 % 0 in
14:37 55.4 °F 32.7 °F 30.3 in NNW 13 mph 20 mph 42 % 0 in
14:42 55.9 °F 33.8 °F 30.3 in ENE 8 mph 20 mph 43 % 0 in
14:47 55.9 °F 32.5 °F 30.3 in ENE 11 mph 18 mph 41 % 0 in
14:52 56.3 °F 32.9 °F 30.3 in NE 10 mph 18 mph 41 % 0 in
14:57 56.1 °F 32.7 °F 30.3 in WNW 4 mph 19 mph 41 % 0 in
15:02 56.1 °F 33.3 °F 30.3 in NW 10 mph 19 mph 42 % 0 in
15:07 56.1 °F 33.3 °F 30.3 in NE 5 mph 19 mph 42 % 0 in
15:12 56.7 °F 35.1 °F 30.2 in NNE 12 mph 19 mph 44 % 0 in
15:17 56.7 °F 33.8 °F 30.2 in NE 8 mph 17 mph 42 % 0 in
15:22 56.7 °F 33.3 °F 30.2 in ENE 8 mph 17 mph 41 % 0 in
15:27 56.8 °F 32.2 °F 30.2 in East 8 mph 18 mph 39 % 0 in
15:32 56.8 °F 33.4 °F 30.2 in North 11 mph 18 mph 41 % 0 in
15:37 56.7 °F 33.3 °F 30.2 in NNE 9 mph 20 mph 41 % 0 in
15:42 56.8 °F 33.4 °F 30.2 in NE 5 mph 20 mph 41 % 0 in
15:47 56.8 °F 33.4 °F 30.2 in ENE 5 mph 18 mph 41 % 0 in
15:52 56.5 °F 32.4 °F 30.2 in NNE 7 mph 18 mph 40 % 0 in
16:02 56.8 °F 33.4 °F 30.2 in NE 7 mph 18 mph 41 % 0 in
16:12 56.7 °F 32 °F 30.2 in ENE 10 mph 19 mph 39 % 0 in
16:17 57 °F 34.7 °F 30.2 in North 7 mph 18 mph 43 % 0 in
16:22 57.4 °F 33.8 °F 30.2 in ENE 8 mph 18 mph 41 % 0 in
16:32 57.6 °F 35.2 °F 30.2 in North 8 mph 18 mph 43 % 0 in
16:37 57.7 °F 33.6 °F 30.2 in ENE 7 mph 15 mph 40 % 0 in
16:42 57.6 °F 34 °F 30.2 in ENE 8 mph 15 mph 41 % 0 in
16:47 57.2 °F 34.9 °F 30.2 in NE 7 mph 17 mph 43 % 0 in
16:52 57.6 °F 34 °F 30.2 in NE 4 mph 17 mph 41 % 0 in
16:57 57.6 °F 34.7 °F 30.2 in NNE 5 mph 17 mph 42 % 0 in
17:02 57.6 °F 34.7 °F 30.2 in NE 13 mph 17 mph 42 % 0 in
17:12 57.7 °F 34.9 °F 30.2 in NE 8 mph 16 mph 42 % 0 in
17:17 57.7 °F 34.2 °F 30.2 in NE 6 mph 15 mph 41 % 0 in
17:22 57.6 °F 33.4 °F 30.2 in NNE 8 mph 15 mph 40 % 0 in
17:32 57.6 °F 34 °F 30.2 in ENE 5 mph 19 mph 41 % 0 in
17:42 57.6 °F 34.7 °F 30.2 in NE 4 mph 16 mph 42 % 0 in
17:47 57.7 °F 34.2 °F 30.2 in NNE 12 mph 16 mph 41 % 0 in
17:52 57.6 °F 35.2 °F 30.2 in ENE 5 mph 16 mph 43 % 0 in
17:57 57.6 °F 34.7 °F 30.2 in NNE 7 mph 17 mph 42 % 0 in
18:02 57.4 °F 33.8 °F 30.2 in NE 6 mph 17 mph 41 % 0 in
18:07 57.6 °F 35.2 °F 30.2 in NNE 9 mph 15 mph 43 % 0 in
18:12 57.4 °F 33.8 °F 30.2 in ENE 6 mph 15 mph 41 % 0 in
18:17 57.4 °F 33.8 °F 30.2 in ENE 9 mph 18 mph 41 % 0 in
18:22 57.4 °F 35.1 °F 30.2 in NNE 9 mph 18 mph 43 % 0 in
18:27 57.4 °F 33.8 °F 30.2 in ENE 8 mph 18 mph 41 % 0 in
18:32 57.2 °F 34.3 °F 30.2 in ENE 6 mph 14 mph 42 % 0 in
18:42 56.8 °F 34.5 °F 30.2 in NNE 7 mph 15 mph 43 % 0 in
18:52 56.5 °F 34.3 °F 30.2 in ENE 9 mph 15 mph 43 % 0 in
18:57 56.7 °F 35.1 °F 30.2 in NE 9 mph 17 mph 44 % 0 in
19:02 56.7 °F 34.3 °F 30.2 in ENE 7 mph 17 mph 43 % 0 in
19:12 56.5 °F 34.3 °F 30.2 in NE 9 mph 17 mph 43 % 0 in
19:17 56.3 °F 34.7 °F 30.2 in NE 5 mph 12 mph 44 % 0 in
19:22 55.9 °F 34.3 °F 30.2 in NNE 7 mph 12 mph 44 % 0 in
19:32 55.8 °F 34.7 °F 30.2 in NNE 6 mph 16 mph 45 % 0 in
19:42 55.6 °F 34.5 °F 30.2 in NNE 9 mph 17 mph 45 % 0 in
19:47 55.4 °F 34.3 °F 30.2 in NE 8 mph 17 mph 45 % 0 in
19:52 55.2 °F 34.9 °F 30.2 in NNE 6 mph 17 mph 46 % 0 in
19:57 55 °F 34.7 °F 30.2 in ENE 6 mph 15 mph 46 % 0 in
20:02 54.9 °F 34.5 °F 30.2 in NE 9 mph 15 mph 46 % 0 in
20:07 54.7 °F 34.3 °F 30.2 in NNW 6 mph 13 mph 46 % 0 in
20:12 54.5 °F 34.7 °F 30.2 in NNE 8 mph 13 mph 47 % 0 in
20:17 54.1 °F 34.3 °F 30.2 in NNE 9 mph 14 mph 47 % 0 in
20:22 54 °F 34.7 °F 30.2 in NNE 6 mph 14 mph 48 % 0 in
20:32 53.2 °F 34.5 °F 30.2 in NE 9 mph 11 mph 49 % 0 in
20:37 53.2 °F 34.5 °F 30.2 in NNE 8 mph 12 mph 49 % 0 in
20:47 52.3 °F 34.2 °F 30.2 in NE 6 mph 12 mph 50 % 0 in
20:52 52.2 °F 34.2 °F 30.2 in NE 3 mph 12 mph 50 % 0 in
20:57 52 °F 34.3 °F 30.2 in NE 5 mph 11 mph 51 % 0 in
21:02 51.8 °F 34.2 °F 30.2 in North 4 mph 11 mph 51 % 0 in
21:12 51.1 °F 34.5 °F 30.2 in North 3 mph 12 mph 53 % 0 in
21:17 50.5 °F 34.5 °F 30.2 in NE 2 mph 10 mph 54 % 0 in
21:22 50.2 °F 34.7 °F 30.2 in Calm   10 mph 55 % 0 in
21:27 50 °F 34.9 °F 30.2 in NNW 1 mph 9 mph 56 % 0 in
21:32 49.6 °F 34.5 °F 30.2 in NNW 1 mph 9 mph 56 % 0 in
21:37 49.3 °F 34.7 °F 30.2 in Calm   9 mph 57 % 0 in
21:47 48.7 °F 34.7 °F 30.2 in NNE 4 mph 5 mph 58 % 0 in
21:52 48.4 °F 34.7 °F 30.2 in North 3 mph 5 mph 59 % 0 in
21:57 48.2 °F 34.5 °F 30.2 in ENE 1 mph 6 mph 59 % 0 in
22:02 48.4 °F 34.7 °F 30.2 in NE 6 mph 6 mph 59 % 0 in
22:12 48 °F 34.3 °F 30.2 in NNE 7 mph 8 mph 59 % 0 in
22:22 47.8 °F 34.7 °F 30.2 in NNE 2 mph 7 mph 60 % 0 in
22:32 47.5 °F 34.7 °F 30.2 in North 1 mph 7 mph 61 % 0 in
22:37 47.5 °F 34.7 °F 30.2 in NE 3 mph 5 mph 61 % 0 in
22:42 47.5 °F 34.7 °F 30.2 in NW 1 mph 5 mph 61 % 0 in
22:47 47.5 °F 34.7 °F 30.2 in North 6 mph 7 mph 61 % 0 in
22:52 47.3 °F 34.5 °F 30.2 in NNE 4 mph 7 mph 61 % 0 in
22:57 47.1 °F 34.3 °F 30.2 in North 4 mph 7 mph 61 % 0 in
23:02 46.9 °F 34.5 °F 30.2 in North 1 mph 7 mph 62 % 0 in
23:12 46.9 °F 34.5 °F 30.2 in NNE 3 mph 9 mph 62 % 0 in
23:17 46.8 °F 34.5 °F 30.2 in North 1 mph 9 mph 62 % 0 in
23:22 46.6 °F 34.3 °F 30.2 in NNE 1 mph 9 mph 62 % 0 in
23:32 46 °F 34.2 °F 30.2 in NNE 1 mph 7 mph 63 % 0 in
23:42 45.5 °F 34 °F 30.2 in NW 2 mph 6 mph 64 % 0 in
23:47 45.3 °F 34.3 °F 30.2 in NW 1 mph 5 mph 65 % 0 in
23:52 45.1 °F 34.2 °F 30.2 in NW 2 mph 5 mph 65 % 0 in
23:57 45.1 °F 34.2 °F 30.2 in NW 3 mph 4 mph 65 % 0 in
Meteo18
Compliments of Weather Underground - 4 mb

Script developed by  Jim McMurry - jmcmurry@mwt.net Adapted for the template by  Wim van der Kuil - Leuven-Template.eu

You find our weather info also at:

European Weather Network

Weather Underground

Equipment we use:

Weather-station
Davis Vue

Weather-program
Meteohub

Weather-server
Raspberry PI 2 B+

Provider
1 and 1

Davis Vue

Meteohub

Raspberry PI 2 B+

1 and 1